TimeAKST,TemperatureF,Dew PointF,Humidity,Sea Level PressureIn,VisibilityMPH,Wind Direction,Wind SpeedMPH,Gust SpeedMPH,PrecipitationIn,Events,Conditions,WindDirDegrees,DateUTC
12:32 AM,39.2,37.4,93,29.78,6.0,NNW,12.7,-,0.07,Rain,Rain,330,2012-12-31 09:32:00
12:45 AM,39.2,37.4,93,29.77,6.0,North,9.2,-,0.10,Rain,Rain,350,2012-12-31 09:45:00
12:53 AM,37.9,37.0,97,29.78,6.0,NNW,6.9,-,0.11,Rain,Rain,330,2012-12-31 09:53:00
1:35 AM,37.4,35.6,93,29.81,5.0,NNW,5.8,-,0.09,Rain,Rain,330,2012-12-31 10:35:00
1:53 AM,37.9,36.0,93,29.82,5.0,North,4.6,-,0.13,Rain,Rain,350,2012-12-31 10:53:00
2:00 AM,37.4,35.6,93,29.83,5.0,Calm,Calm,-,0.01,Rain,Light Rain,0,2012-12-31 11:00:00
2:16 AM,37.4,35.6,93,29.84,8.0,Calm,Calm,-,0.02,Rain,Light Rain,0,2012-12-31 11:16:00
3:53 AM,36.0,35.1,97,29.90,10.0,ESE,6.9,-,0.01,,Overcast,110,2012-12-31 12:53:00
4:33 AM,35.6,35.6,100,29.93,10.0,ESE,5.8,-,N/A,,Overcast,120,2012-12-31 13:33:00
4:53 AM,37.0,36.0,96,29.95,10.0,East,5.8,-,N/A,,Overcast,100,2012-12-31 13:53:00
5:50 AM,37.4,35.6,93,29.99,7.0,ESE,5.8,-,N/A,,Overcast,110,2012-12-31 14:50:00
5:53 AM,37.0,36.0,96,29.99,7.0,East,5.8,-,N/A,,Overcast,100,2012-12-31 14:53:00
6:53 AM,37.0,37.0,100,30.02,7.0,ESE,4.6,-,N/A,,Overcast,120,2012-12-31 15:53:00
7:19 AM,37.4,35.6,93,30.05,7.0,ESE,4.6,-,N/A,,Overcast,120,2012-12-31 16:19:00
7:53 AM,37.9,37.0,97,30.08,7.0,ESE,6.9,-,N/A,,Overcast,110,2012-12-31 16:53:00
8:53 AM,37.9,37.0,97,30.11,6.0,East,5.8,-,N/A,,Overcast,90,2012-12-31 17:53:00
9:03 AM,37.4,37.4,100,30.12,4.0,ESE,3.5,-,0.00,Rain,Light Rain,120,2012-12-31 18:03:00
9:41 AM,37.4,37.4,100,30.15,6.0,East,3.5,-,0.00,Rain,Light Rain,90,2012-12-31 18:41:00
9:53 AM,37.9,37.9,100,30.15,6.0,ESE,5.8,-,0.00,,Overcast,110,2012-12-31 18:53:00
10:53 AM,39.0,39.0,100,30.19,7.0,East,6.9,-,N/A,,Overcast,90,2012-12-31 19:53:00
11:53 AM,39.9,39.0,97,30.19,9.0,East,8.1,-,N/A,,Overcast,100,2012-12-31 20:53:00
12:53 PM,42.1,37.9,85,30.20,10.0,East,8.1,-,N/A,,Mostly Cloudy,100,2012-12-31 21:53:00
1:53 PM,42.1,37.9,85,30.21,10.0,SE,8.1,-,N/A,,Scattered Clouds,140,2012-12-31 22:53:00
2:53 PM,39.9,37.9,93,30.24,10.0,SE,9.2,-,N/A,,Overcast,130,2012-12-31 23:53:00
3:53 PM,41.0,37.0,86,30.25,10.0,SE,9.2,-,N/A,,Overcast,140,2013-01-01 00:53:00
4:53 PM,39.9,37.0,89,30.27,10.0,ESE,8.1,-,N/A,,Overcast,120,2013-01-01 01:53:00
5:22 PM,41.0,37.4,87,30.26,10.0,ESE,8.1,-,N/A,,Overcast,110,2013-01-01 02:22:00
5:53 PM,41.0,36.0,82,30.25,10.0,ESE,10.4,-,N/A,,Overcast,120,2013-01-01 02:53:00
6:53 PM,41.0,36.0,82,30.23,10.0,ESE,5.8,-,N/A,,Overcast,120,2013-01-01 03:53:00
7:53 PM,39.9,36.0,86,30.23,10.0,ESE,8.1,-,N/A,,Overcast,110,2013-01-01 04:53:00
8:53 PM,39.9,36.0,86,30.22,10.0,ESE,6.9,-,N/A,,Overcast,120,2013-01-01 05:53:00
9:53 PM,42.1,36.0,79,30.20,10.0,SE,11.5,-,N/A,,Scattered Clouds,140,2013-01-01 06:53:00
10:53 PM,44.1,33.1,65,30.19,10.0,SE,11.5,-,N/A,,Partly Cloudy,130,2013-01-01 07:53:00
11:53 PM,43.0,34.0,71,30.19,10.0,ESE,13.8,-,N/A,,Clear,120,2013-01-01 08:53:00